#timestamp,LO_Frequency,Hit,StdDev 
1606377615.1,286047000.7,N
1606377616.0,286047000.7,N
1606377635.8,286047000.9,N
1606377655.6,286046998.1,N
1606377675.5,286047002.3,N
1606377695.3,286046999.7,N
1606377715.1,286047001.9,N
1606377735.9,286047002.1,N
1606377755.7,286047002.7,N
1606377775.5,286047001.8,N
1606377795.4,286047004.3,Y
1606377815.2,286047001.4,P
1606377835.0,286047000.0,N
1606377835.9,286047000.0,N
1606377855.8,286047004.2,Y
1606377875.6,286047003.4,P
1606377895.4,286047005.8,P
1606377915.3,286047002.9,N
1606377935.1,286047005.6,Y
1606377955.9,286047002.6,P
1606377975.7,286047003.9,P
1606377995.5,286047006.0,P
1606378015.4,286047005.5,Y
1606378035.2,286047001.4,P
1606378055.0,286047003.8,N
1606378055.9,286047003.8,P
1606378075.8,286047006.0,Y
1606378095.6,286047002.7,P
1606378115.4,286047002.4,P
1606378135.3,286047002.6,P
1606378155.1,286047002.8,Y
1606378156.0,286047002.8,P
1606378175.8,286046998.7,P
1606378195.7,286046998.6,N
1606378215.5,286046998.3,N
1606378235.3,286047001.1,N
1606378255.2,286047000.7,N
1606378275.9,286047000.5,N
1606378295.7,286047000.4,N
1606378315.6,286047000.1,N
1606378335.4,286047002.8,N
1606378355.2,286046999.9,N
1606378375.1,286047002.3,N
1606378376.0,286047002.3,N
1606378395.8,286047002.4,N
1606378415.6,286047004.2,N
1606378435.5,286047004.4,N
1606378455.3,286047003.7,N
1606378475.1,286047003.4,N
1606378495.8,286047005.5,N
1606378515.7,286047002.9,N
1606378535.5,286047003.1,N
1606378555.3,286047005.5,N
1606378575.2,286047005.0,N
1606378595.0,286047004.9,N
1606378595.9,286047004.9,N
1606378615.7,286047007.6,Y
1606378635.6,286047004.4,P
1606378655.4,286047003.7,P
1606378675.2,286047005.6,P
1606378695.1,286047004.6,Y
1606378696.0,286047004.6,P
1606378715.8,286047001.6,P
1606378735.6,286047001.4,N
1606378755.5,286047003.1,N
1606378775.3,286047005.6,Y
1606378795.1,286047001.4,P
1606378815.9,286047002.5,P
1606378835.7,286047001.9,N
1606378855.5,286047002.0,Y
1606378875.4,286047002.8,P
1606378895.2,286047001.9,P
1606378915.0,286047002.8,P
1606378916.0,286047002.8,Y
1606378935.8,286046998.5,P
1606378955.6,286047001.2,N
1606378975.5,286047000.5,N
1606378995.3,286047001.1,N
1606379015.1,286047002.6,N
1606379035.8,286047002.6,N
1606379055.7,286047002.1,N
1606379075.5,286047002.7,N
1606379095.3,286047002.3,N
1606379115.2,286047004.0,Y
1606379135.0,286046998.4,P
1606379135.9,286046998.4,N
1606379155.8,286047001.2,N
1606379175.6,286047000.0,N
1606379195.4,286046998.1,N
1606379215.3,286047002.8,N
1606379235.1,286047002.5,N
1606379236.0,286047002.5,N
1606379255.8,286047002.6,N
1606379275.7,286046999.7,N
1606379295.5,286047002.5,N
1606379315.3,286046999.7,N
1606379335.1,286047000.1,N
1606379355.9,286046998.1,N
1606379375.7,286046998.3,N
1606379395.5,286046999.8,N
1606379415.4,286047002.0,N
1606379435.2,286047001.1,N
1606379455.0,286046999.4,N
1606379455.9,286046999.4,N
1606379475.8,286046999.6,N
1606379495.6,286046996.9,N
1606379515.4,286046999.2,N
1606379535.3,286046999.1,N
1606379555.1,286046997.7,N
1606379575.8,286046999.1,N
1606379595.7,286046996.6,N
1606379615.5,286046996.8,N
1606379635.3,286046997.5,N
1606379655.2,286046996.5,N
1606379675.0,286046994.9,N
1606379675.9,286046994.9,N
1606379695.7,286046995.7,N
1606379715.6,286046994.1,N
1606379735.4,286046993.9,N
1606379755.2,286046994.1,N
1606379775.1,286046994.5,N
1606379776.0,286046994.5,N
1606379795.8,286046996.0,N
1606379815.6,286046996.0,N
1606379835.5,286046995.8,N
1606379855.3,286046993.4,N
1606379875.1,286046994.5,N
1606379895.9,286046991.8,Y
1606379915.7,286046998.0,P
1606379935.5,286046995.3,P
1606379955.4,286046997.4,N
1606379975.2,286046993.7,Y
1606379995.0,286046999.0,P
1606379996.0,286046999.0,N
1606380015.8,286046997.2,N
1606380035.6,286046996.7,Y
1606380055.5,286046998.4,P
1606380075.3,286046996.9,P
1606380095.1,286046994.9,P
1606380115.9,286046995.0,Y
1606380135.7,286046998.4,P
1606380155.5,286046998.9,N
1606380175.4,286046998.6,N
1606380195.2,286046997.1,Y
1606380215.0,286047001.2,P
1606380215.9,286047001.2,N
1606380235.8,286046998.1,N
1606380255.6,286046998.9,N
1606380275.4,286046999.4,N
1606380295.3,286046998.1,N
1606380315.1,286047001.0,N
1606380316.0,286047001.0,N
1606380335.8,286046999.0,N
1606380355.7,286046999.2,N
1606380375.5,286046999.2,N
1606380395.3,286046995.7,Y
1606380415.2,286046995.1,P
1606380435.9,286046995.3,N
1606380455.7,286046993.3,P
1606380475.6,286046994.0,N
1606380495.4,286046993.7,N
1606380515.2,286046994.6,N
1606380535.1,286046993.8,Y
1606380536.0,286046993.8,P
1606380555.8,286046997.8,P
1606380575.6,286046996.7,N
1606380595.5,286046997.5,N
1606380615.3,286046996.1,N
1606380635.1,286046998.0,N
1606380655.9,286046997.8,N
1606380675.7,286046995.4,Y
1606380695.5,286046998.9,P
1606380715.4,286046998.9,N
1606380735.2,286046999.4,N
1606380755.0,286046998.5,N
1606380755.9,286046998.5,N
1606380775.8,286046999.4,N
1606380795.6,286046999.2,N
1606380815.4,286046999.1,N
1606380835.3,286046996.9,Y
1606380855.1,286047000.9,P
1606380875.8,286046998.5,N
1606380895.7,286047000.7,N
1606380915.5,286046997.0,N
1606380935.3,286046997.8,N
1606380955.2,286046996.2,N
1606380975.9,286046996.0,N
1606380995.7,286046996.4,N
1606381015.6,286046993.6,Y
1606381035.4,286046995.4,P
1606381055.2,286046995.8,P
1606381075.1,286046994.9,P
1606381076.0,286046994.9,Y
1606381095.8,286047000.0,P
1606381115.6,286047000.8,N
1606381135.5,286047000.1,N
1606381155.3,286046999.7,N
1606381175.1,286046998.5,N
1606381195.9,286047000.7,N
